Lawrence, KS

4:07 AM CDT on July 23, 2017 (GMT -0500)
Lawrence Municipal

Weather History for KLWC - March, 2013

Change the Weather History Date:

Sunday, March 3, 2013

  Actual Average Record
Temperature  
Mean Temperature 33 °F 39 °F  
Max Temperature 42 °F 51 °F 69 °F (2011)
Min Temperature 24 °F 28 °F -6 °F (2014)
Degree Days  
Heating Degree Days 32 26  
Month to date heating degree days 111 78  
Since 1 July heating degree days 3942 4093  
Cooling Degree Days 0 0  
Month to date cooling degree days 0 0  
Year to date cooling degree days 0 0  
Moisture  
Dew Point 25 °F    
Average Humidity 67    
Maximum Humidity 81    
Minimum Humidity 53    
Precipitation  
Precipitation 0.00 in 0.08 in 0.24 in (2004)
Month to date precipitation T 0.23  
Year to date precipitation 2.72 2.54  
Sea Level Pressure  
Sea Level Pressure 29.96 in    
Wind  
Wind Speed 10 mph (SE)    
Max Wind Speed 17 mph    
Max Gust Speed 21 mph    
Visibility 7 miles    
Events      
T = Trace of Precipitation, MM = Missing Value Source: NWS Daily Summary

Daily Weather History Graph

Daily Weather History Graph

Search for Another Location

Airport or City:

Trip Planner

Search our weather history database for the weather conditions in past years. The results will help you decide how hot, cold, wet, or windy it might be!

Date:

Astronomy

Mar. 03, 2013 Rise Set
Actual Time 6:50 AM CST 6:15 PM CST
Civil Twilight 6:23 AM CST 6:42 PM CST
Nautical Twilight 5:52 AM CST 7:13 PM CST
Astronomical Twilight 5:21 AM CST 7:44 PM CST
Moon No Moon Rise 10:09 AM CST (3/3)
Length of Visible Light 12h 19m
Length of Day
11h 25m
Waning Gibbous, 63% of the Moon is Illuminated
Mar 3
Waning Gibbous
Mar 4
Last Quarter
Mar 11
New
Mar 19
First Quarter
Mar 27
Full

Hourly Weather History & Observations

Time (CST) Temp. Windchill Dew Point Humidity Pressure Visibility Wind Dir Wind Speed Gust Speed Precip Events Conditions
12:52 AM 28.0 °F 21.7 °F 21.0 °F 75% 30.19 in 5.0 mi ESE 5.8 mph - N/A   Haze
1:52 AM 27.0 °F 19.5 °F 19.9 °F 75% 30.17 in 5.0 mi SE 6.9 mph - N/A   Haze
2:52 AM 25.0 °F 17.1 °F 18.0 °F 75% 30.14 in 5.0 mi SE 6.9 mph - N/A   Haze
3:52 AM 25.0 °F 17.1 °F 18.0 °F 75% 30.13 in 5.0 mi ESE 6.9 mph - N/A   Haze
4:52 AM 24.1 °F 15.2 °F 18.0 °F 77% 30.11 in 5.0 mi ESE 8.1 mph - N/A   Haze
6:52 AM 25.0 °F 14.8 °F 19.0 °F 78% 30.08 in 5.0 mi ESE 10.4 mph - N/A   Haze
7:52 AM 27.0 °F 17.3 °F 19.9 °F 75% 30.06 in 5.0 mi ESE 10.4 mph - N/A   Haze
8:52 AM 30.9 °F 22.8 °F 21.0 °F 67% 30.05 in 6.0 mi SE 9.2 mph - N/A   Haze
9:52 AM 34.0 °F 26.0 °F 23.0 °F 64% 30.02 in 6.0 mi SE 10.4 mph - N/A   Haze
10:52 AM 37.0 °F 30.4 °F 25.0 °F 62% 30.00 in 6.0 mi SSE 9.2 mph - N/A   Haze
11:52 AM 39.9 °F 32.5 °F 26.1 °F 58% 29.98 in 8.0 mi SSE 12.7 mph - N/A   Clear
12:52 PM 41.0 °F 34.7 °F 28.0 °F 60% 29.94 in 7.0 mi SSE 10.4 mph - N/A   Clear
1:52 PM 42.1 °F 36.6 °F 27.0 °F 55% 29.90 in 7.0 mi SSE 9.2 mph - N/A   Clear
2:52 PM 42.1 °F 36.1 °F 28.9 °F 60% 29.88 in 7.0 mi SSE 10.4 mph - N/A   Clear
3:52 PM 41.0 °F 35.2 °F 28.9 °F 62% 29.86 in 7.0 mi SE 9.2 mph - N/A   Clear
4:52 PM 39.9 °F 32.5 °F 28.0 °F 63% 29.86 in 6.0 mi East 12.7 mph - N/A   Haze
5:52 PM 39.9 °F 32.1 °F 28.0 °F 63% 29.83 in 7.0 mi ESE 13.8 mph - N/A   Clear
6:52 PM 39.9 °F 32.1 °F 28.0 °F 63% 29.82 in 8.0 mi ESE 13.8 mph - N/A   Clear
7:52 PM 39.0 °F 31.4 °F 28.0 °F 65% 29.83 in 8.0 mi ESE 12.7 mph - N/A   Clear
8:52 PM 39.0 °F 31.4 °F 28.0 °F 65% 29.82 in 9.0 mi ESE 12.7 mph - N/A   Clear
9:52 PM 37.9 °F 30.9 °F 28.0 °F 68% 29.80 in 10.0 mi ESE 10.4 mph - N/A   Clear
10:52 PM 39.0 °F 31.4 °F 28.0 °F 65% 29.78 in 10.0 mi ESE 12.7 mph - N/A   Clear
11:52 PM 39.0 °F 31.4 °F 28.9 °F 67% 29.74 in 10.0 mi ESE 12.7 mph - N/A   Clear